Honolulu, HI

7:19 PM HST on January 21, 2018 (GMT -1000)
Honolulu International

Weather History for PHNL - October, 2012

Change the Weather History Date:

Wednesday, October 10, 2012

  Actual Average Record
Temperature  
Mean Temperature 81 °F 81 °F  
Max Temperature 89 °F 87 °F 92 °F (1987)
Min Temperature 73 °F 74 °F 68 °F (1956)
Degree Days  
Heating Degree Days 0 0  
Month to date heating degree days 0 0  
Since 1 July heating degree days 0 0  
Cooling Degree Days 16 15  
Month to date cooling degree days 138 159  
Year to date cooling degree days 3548 3638  
Growing Degree Days 30 (Base 50)    
Moisture  
Dew Point 69 °F    
Average Humidity 69    
Maximum Humidity 87    
Minimum Humidity 51    
Precipitation  
Precipitation 0.00 in 0.05 in 0.81 in (1966)
Month to date precipitation 0.01 0.46  
Year to date precipitation 8.29 10.06  
Snow  
Snow 0.00 in - - ()
Month to date snowfall 0.0  
Since 1 July snowfall 0.0  
Since 1 September snowfall 0.0  
Snow Depth 0.00 in    
Sea Level Pressure  
Sea Level Pressure 30.04 in    
Wind  
Wind Speed 5 mph (NE)    
Max Wind Speed 15 mph    
Max Gust Speed 18 mph    
Visibility 9 miles    
Events      
T = Trace of Precipitation, MM = Missing Value Source: NWS Daily Summary

Daily Weather History Graph

Daily Weather History Graph

Search for Another Location

Airport or City:

Trip Planner

Search our weather history database for the weather conditions in past years. The results will help you decide how hot, cold, wet, or windy it might be!

Date:

Astronomy

Oct. 10, 2012 Rise Set
Actual Time 6:25 AM HST 6:10 PM HST
Civil Twilight 6:03 AM HST 6:33 PM HST
Nautical Twilight 5:37 AM HST 6:58 PM HST
Astronomical Twilight 5:11 AM HST 7:24 PM HST
Moon 1:49 AM HST (10/10) 2:48 PM HST (10/10)
Length of Visible Light 12h 29m
Length of Day
11h 44m
Waning Crescent, 25% of the Moon is Illuminated
Oct 10
Waning Crescent
Oct 15
New
Oct 21
First Quarter
Oct 29
Full
Nov 6
Last Quarter

Hourly Weather History & Observations

Time (HST) Temp. Heat Index Dew Point Humidity Pressure Visibility Wind Dir Wind Speed Gust Speed Precip Events Conditions
12:53 AM 77.0 °F - 70.0 °F 79% 30.06 in 10.0 mi North 4.6 mph - N/A   Scattered Clouds
1:53 AM 75.9 °F - 69.1 °F 79% 30.04 in 10.0 mi North 3.5 mph - N/A   Scattered Clouds
2:53 AM 75.0 °F - 69.1 °F 82% 30.03 in 10.0 mi Calm Calm - N/A   Partly Cloudy
3:53 AM 73.9 °F - 68.0 °F 82% 30.03 in 10.0 mi Calm Calm - N/A   Scattered Clouds
4:53 AM 73.9 °F - 68.0 °F 82% 30.04 in 10.0 mi Calm Calm - N/A   Partly Cloudy
5:53 AM 73.0 °F - 68.0 °F 84% 30.04 in 10.0 mi Calm Calm - N/A   Scattered Clouds
6:53 AM 73.9 °F - 69.1 °F 85% 30.05 in 6.0 mi NW 3.5 mph - N/A   Haze
7:53 AM 78.1 °F - 69.1 °F 74% 30.06 in 6.0 mi NNW 4.6 mph - N/A   Haze
8:53 AM 82.0 °F 85.5 °F 69.1 °F 65% 30.07 in 6.0 mi SE 3.5 mph - N/A   Haze
9:53 AM 84.9 °F 88.2 °F 68.0 °F 57% 30.07 in 7.0 mi Variable 6.9 mph - N/A   Haze
10:53 AM 82.9 °F 87.5 °F 71.1 °F 67% 30.06 in 9.0 mi South 9.2 mph - N/A   Scattered Clouds
11:53 AM 88.0 °F 91.4 °F 68.0 °F 51% 30.04 in 10.0 mi ENE 8.1 mph - N/A   Scattered Clouds
12:53 PM 87.1 °F 90.6 °F 68.0 °F 53% 30.02 in 10.0 mi NE 6.9 mph - N/A   Mostly Cloudy
1:53 PM 87.1 °F 90.6 °F 68.0 °F 53% 29.99 in 10.0 mi NE 11.5 mph 18.4 mph N/A   Scattered Clouds
2:53 PM 86.0 °F 88.8 °F 66.9 °F 53% 29.99 in 10.0 mi North 10.4 mph - N/A   Mostly Cloudy
3:53 PM 86.0 °F 88.2 °F 66.0 °F 51% 29.99 in 10.0 mi NE 12.7 mph - N/A   Mostly Cloudy
4:53 PM 84.9 °F 87.6 °F 66.9 °F 55% 30.01 in 10.0 mi NE 10.4 mph - N/A   Scattered Clouds
5:53 PM 82.0 °F 83.4 °F 64.0 °F 54% 30.02 in 10.0 mi NNE 8.1 mph - N/A   Scattered Clouds
6:53 PM 80.1 °F 82.1 °F 66.0 °F 62% 30.05 in 10.0 mi NNE 5.8 mph - N/A   Scattered Clouds
7:53 PM 79.0 °F - 69.1 °F 72% 30.06 in 10.0 mi North 5.8 mph - N/A   Mostly Cloudy
8:53 PM 80.1 °F 83.2 °F 70.0 °F 71% 30.08 in 10.0 mi NE 11.5 mph - N/A   Mostly Cloudy
9:53 PM 80.1 °F 83.2 °F 70.0 °F 71% 30.09 in 10.0 mi NE 9.2 mph - N/A   Mostly Cloudy
10:53 PM 78.1 °F - 72.0 °F 81% 30.09 in 10.0 mi NE 5.8 mph - 0.00 in   Mostly Cloudy
11:53 PM 78.1 °F - 72.0 °F 81% 30.09 in 10.0 mi East 5.8 mph - N/A   Mostly Cloudy